カタログに戻る

CZ-4 DEB

運用中SSO
NORAD 26198·DEBRIS·🇨🇳 China

打ち上げ Oct 14, 1999 から Taiyuan Satellite Launch Center

Loading…

次のパス (今後24時間)

TLE

最新Source: Space-Track

元期: Sep 14, 2026, 02:04 UTC

1 26198U 99057CL  26257.08617243  .00000936  00000-0  22868-3 0  9996
2 26198  98.5104 314.0943 0067130 181.9384 178.1562 14.53658697395449

AllMySatでCZ-4 DEBをリアルタイム追跡

Download on the App Store